Location: Saginaw
(43.4195°N, 83.9508°W)
Time: 16:27:05
(UTC-04:00)

Daily predictions for brighter satellites

Satellite Brightness Start Highest point End
(mag) Time Altitude Azimuth Time Altitude Azimuth Time Altitude Azimuth
Meteor 2-10 Rocket 3.9 21:27:09 10° N 21:32:58 65° ENE 21:38:39 10° SSE
ERBS 2.5 21:31:02 10° NW 21:34:29 65° NE 21:37:56 10° ESE
SPOT 5 3.9 21:30:11 10° SE 21:34:53 35° ENE 21:39:42 10° N
ALOS 3.3 21:30:44 10° S 21:35:15 50° W 21:39:49 10° NNW
Cosmos 1674 Rocket 4.3 21:32:30 10° N 21:36:40 38° ENE 21:40:49 10° SE
Cosmos 1606 4.2 21:34:41 10° NNE 21:37:46 21° ENE 21:40:50 10° SE
Cosmos 407 Rocket 4.3 21:34:45 10° N 21:39:39 38° ENE 21:44:34 10° SE
Cosmos 1892 2.7 21:42:23 10° S 21:46:11 72° E 21:50:03 10° NNE
H-2A R/B 4.4 21:45:28 10° SSW 21:48:49 33° W 21:52:14 10° NNW
ERS-1 Rocket 3.0 21:44:36 10° SSE 21:49:39 89° W 21:54:44 10° NNW
Cosmos 909 Rocket 4.3 21:44:53 10° SSW 21:51:20 72° ESE 21:59:08 10° NE
Cosmos 1190 Rocket 4.2 21:46:13 10° NNW 21:51:22 58° ENE 21:56:28 10° SE
PSLV R/B 4.0 21:52:32 10° W 21:55:49 41° SSW 21:58:46 12° SE
Meteor 2-6 Rocket 4.4 21:50:27 10° N 21:56:24 64° ENE 22:02:12 10° SSE
Abrixas rocket 4.2 21:58:26 10° W 22:01:06 21° SW 22:03:45 10° SSE
Coronas F rocket 1.8 21:59:41 10° SSW 22:02:16 58° W 22:04:54 10° N
CZ-4 DEB 4.5 22:00:18 10° SSW 22:03:10 31° W 22:06:04 10° NNW
Cosmos 1975 Rocket 4.3 22:01:20 10° NNE 22:04:55 25° ENE 22:07:45 14° ESE
USA 234 4.2 22:01:18 10° ENE 22:06:21 23° SE 22:11:21 10° S
Cosmos 2154 Rocket 4.2 22:01:28 10° SSE 22:07:25 51° E 22:13:24 10° NNE
deb Chang Zheng 4 3.6 22:04:37 10° NNE 22:09:02 80° ESE 22:13:28 10° SSW
BREEZE-M DEB (TANK) 2.9 22:07:15 10° WSW 22:09:45 73° NNW 22:15:32 10° ENE
CZ-4B R/B 4.3 22:05:55 10° NE 22:10:16 29° E 22:13:59 12° SSE
SL-8 R/B 3.6 22:07:17 10° SW 22:12:05 75° SSE 22:16:54 10° ENE
SL-08 ROCKET BODY 4.5 22:06:31 10° S 22:12:35 84° W 22:18:34 10° N
MetOp-B 4.3 22:07:40 11° SSE 22:12:45 61° ENE 22:18:02 10° N
Cosmos 2184 Rocket 4.2 22:08:19 10° SSW 22:14:27 75° W 22:20:40 10° N
COSMOS 2406 3.5 22:08:47 10° NNW 22:14:31 68° WSW 22:20:10 10° SSE
Cosmos 1908 Rocket 3.7 22:11:19 10° S 22:15:34 52° E 22:19:54 10° NNE
Cosmos 1733 Rocket 3.6 22:16:19 10° SSW 22:20:41 60° W 22:25:03 10° N
USA 245 3.7 22:19:18 20° SE 22:21:03 37° ENE 22:24:33 10° N
Cosmos 1378 Rocket 3.7 22:16:51 10° N 22:21:06 55° E 22:24:19 17° SSE
Cosmos 676 Rocket 4.1 22:16:09 10° NNW 22:21:20 64° ENE 22:25:21 17° SSE
EO 1 Delta rocket 4.4 22:16:02 10° N 22:22:44 85° E 22:28:00 10° S
ATLAS 5 CENTAUR R/B 2.9 22:17:13 10° NW 22:23:08 58° WSW 22:28:52 13° SSE
ARGOS 3.6 22:19:51 16° SE 22:23:55 47° ENE 22:29:02 10° N
Cosmos 2056 Rocket 3.8 22:19:44 10° SSW 22:24:53 70° WNW 22:30:01 10° NNE
CZ-3C R/B 4.3 22:12:42 10° SW 22:25:29 16° SSW 22:30:50 11° SSE
Cosmos 1184 Rocket 3.7 22:24:38 22° SE 22:26:04 31° E 22:29:03 10° NNE
Cosmos 1174 3.4 22:24:47 10° NNW 22:28:06 56° NE 22:29:36 25° SE
Cosmos 1954 Rocket 4.2 22:23:09 10° NNW 22:28:17 57° ENE 22:31:54 19° SE
MINOTAUR IV R/B 4.5 22:25:07 10° SSW 22:29:34 72° ESE 22:34:02 10° NNE
Cosmos 1862 3.3 22:28:45 11° S 22:32:34 68° E 22:36:39 10° NNE
Cosmos 2278 Rocket 2.5 22:28:35 10° S 22:33:56 45° ESE 22:39:18 10° NE
CENTAUR R/B 3.9 22:29:05 10° NW 22:36:30 45° WSW 22:44:15 10° S
Cosmos 1844 3.7 22:31:10 10° SSW 22:36:54 72° ESE 22:42:41 10° NNE
Cosmos 1833 Rocket 4.3 22:32:54 10° N 22:37:17 23° NE 22:40:56 13° E
SL-27 R/B 3.8 22:36:29 10° NW 22:39:53 37° WSW 22:42:44 13° SSW
Cosmos 1825 2.1 22:37:57 16° S 22:40:54 73° E 22:44:44 10° NNE
Cosmos 2084 3.6 22:37:51 12° S 22:41:08 38° ESE 22:44:42 10° NE
COSMOS 2487 2.7 22:39:43 10° N 22:43:18 56° ENE 22:44:48 30° SE
COS B Rocket 3.7 22:39:33 10° N 22:43:46 64° W 22:47:18 12° SSW
Cosmos 1844 Rocket 2.9 22:39:13 10° SSW 22:44:52 76° WNW 22:50:33 10° NNE
H-2A R/B 3.5 22:41:58 10° SSW 22:45:55 34° W 22:49:49 10° NNW
APEX 4.4 22:50:10 27° ESE 22:50:34 27° ESE 22:54:32 10° NE
CZ-4 SHROUD 4.2 22:50:15 19° SSW 22:52:05 41° W 22:55:03 10° NNW
Cosmos 2082 Rocket 3.2 22:47:04 10° N 22:52:17 35° NE 22:55:25 20° ESE
CZ-4C R/B 3.9 22:51:49 30° ESE 22:53:11 42° ENE 22:57:00 10° N
YAOGAN 6 3.1 22:52:00 21° S 22:54:08 52° W 22:57:35 10° NNW
Cosmos 1408 2.7 22:52:39 17° SSW 22:55:26 73° W 22:59:05 10° N
Meteor 1-27 Rocket 4.2 22:50:40 10° NNW 22:56:09 58° W 23:00:52 14° S
Nadezhda 3 Rocket 4.5 22:56:21 10° NNW 23:02:34 60° W 23:08:16 13° S
Cosmos 2218 Rocket 4.2 22:59:14 24° SSE 23:03:04 54° E 23:09:17 10° NNE
Cosmos 1023 Rocket 4.4 22:57:57 10° NNW 23:03:05 77° ENE 23:05:34 31° SSE
Cosmos 2297 4.1 23:02:58 27° SSE 23:05:25 41° ESE 23:10:46 10° NE
Okean 2 Rocket 3.0 23:02:50 22° S 23:05:41 90° E 23:10:07 10° N
Landsat 7 3.8 23:05:01 32° SSE 23:07:09 69° ENE 23:11:54 10° N
H-2A R/B 2.3 23:05:40 30° SE 23:08:18 61° ENE 23:13:34 10° N
Cosmos 1238 Rocket 3.5 23:06:06 10° NNW 23:09:02 38° W 23:10:41 23° SSW
Cosmos 1242 Rocket 2.5 23:05:58 10° N 23:09:38 87° WSW 23:10:42 44° S
DELTA 2 DEB (DPAF) 4.1 23:09:30 36° SSE 23:11:16 73° ENE 23:15:44 10° N
Cosmos 1420 Rocket 3.9 23:08:59 20° S 23:12:40 72° ESE 23:17:53 10° NNE
BREEZE-M DEB 3.9 23:12:16 10° WSW 23:16:06 86° SSE 23:16:22 71° ENE
Cosmos 1727 Rocket 4.1 23:13:00 10° N 23:19:04 57° ENE 23:21:45 33° SE
Terra 1.8 23:21:17 40° SE 23:22:55 69° ENE 23:27:39 10° N
Spot 4 4.2 23:21:25 37° SE 23:22:58 53° ENE 23:27:42 10° N
SPOT 1/Viking Rocket 4.4 23:20:10 20° SSW 23:23:30 46° W 23:28:31 10° NNW
ASTEX 1 4.1 23:20:27 10° NNE 23:25:00 36° E 23:25:46 34° ESE
IGS 5A 3.5 23:25:17 50° SE 23:26:11 66° ENE 23:30:20 10° N
Cosmos 1959 Rocket 4.4 23:22:49 26° S 23:26:25 81° E 23:32:32 10° N
Timation 2 Rocket 3.9 23:26:30 10° NNW 23:32:31 76° WSW 23:35:01 37° S
Cosmos 614 Rocket 3.8 23:27:41 10° NNW 23:32:49 88° WSW 23:34:27 44° SSE
Okean 1 4.1 23:30:42 10° N 23:34:30 37° ENE 23:34:40 37° E
Cosmos 1140 Rocket 3.9 23:30:55 10° NNW 23:35:56 54° WSW 23:37:56 33° SSW
SAR-Lupe-2 3.7 23:36:53 60° ENE 23:36:53 60° ENE 23:40:25 10° N
DNEPR-1 R/B 3.9 23:34:34 10° NW 23:39:59 68° WSW 23:41:08 49° S
BREEZE-M DEB (TANK) 3.7 23:41:49 10° WNW 23:43:53 28° N 23:47:46 10° ENE
Cosmos 2369 Rocket 4.4 23:46:18 10° E 23:46:18 10° E 23:46:35 10° E
Meteor 1-20 Rocket 4.2 23:43:42 45° SSE 23:45:14 61° E 23:50:42 10° NNE
CARTOSAT-1 3.7 23:44:45 50° SSW 23:45:42 65° WSW 23:49:59 10° NNW
SL-8 Rocket 4.4 23:41:38 18° SSW 23:46:17 61° W 23:52:29 10° N
Cosmos 1339 Rocket 4.4 23:41:47 10° N 23:47:57 79° E 23:50:09 43° SSE
USA 234 3.1 23:43:21 10° NE 23:49:56 86° SE 23:56:28 10° SW
Meteor 1-25 Rocket 4.2 23:47:59 41° S 23:50:08 79° E 23:55:59 10° NNE
DMSP B5D2-2 4.1 23:49:18 10° N 23:54:31 78° WNW 23:56:39 37° SSW
